{"data":{"norad_id":62148,"epoch":"2026-09-21T08:21:02.511936Z","epoch_age_seconds":108291,"freshness":"FRESH","line1":"1 62148U 24224K   26264.34794574  .00008802  00000+0  32895-3 0  9995","line2":"2 62148  42.9987 133.1130 0001516 265.8001  94.2677 15.27583000102345","mean_motion":15.27583,"eccentricity":0.0001516,"inclination_deg":42.9987,"raan_deg":133.113,"arg_perigee_deg":265.8001,"mean_anomaly_deg":94.2677,"bstar":0.00032895,"rev_number":10234,"period_min":94.266563584434,"perigee_km":481.99995852478,"apogee_km":484.08026742544,"semimajor_km":6861.1771129751,"source":"CELESTRAK","updated_at":"2026-09-22T09:00:49.530905Z"}}